星链-34911 (STARLINK-34911)

导读

STARLINK-34911是美国SpaceX公司星链(Starlink)卫星互联网星座的一员,于2025年8月27日发射入轨。作为低轨通信卫星,它属于星链第二代组网卫星,采用平板设计搭配太阳能电池阵,以氪为工质的霍尔推进器实现轨道机动与离轨,具备自主避撞能力,旨在为全球尤其是基础设施匮乏地区提供高速低延迟的宽带互联网服务,助力星链星座规模拓展与全球覆盖能力提升。

基本信息
目录编号:
65325
目录名称:
STARLINK-34911
国际标识:
2025-189C
轨道中心:
EARTH
卫星名称:
星链-34911
卫星全名:
星链-34911 (STARLINK-34911)
卫星状态:
在轨 (已飞行373 天)
发射日期:
2025-08-27 UTC
国别 :
美国 (US)
星等 :
--
轨道信息
数据来源 国际轨道数据
星历时间: 2026-09-04T09:17:14+0800
9小时前
查看轨道信息
半长轴: 6840.839km
偏心率: 0.0001379
轨道倾角: 53.159°
近地点辐角 113.549°
升交点赤经 96.241°
平近点角 246.565°
近地点: 461.758km
远地点: 463.646km
周期: 93.848分钟
每日圈数: 15.344005
详细信息
固有亮度:
5
最大亮度:
2.5
卫星平台:
Starlink V1.0
覆盖范围:
全球
运营商:
太空探索技术公司
运营商所在国:
美国
制造商(研发单位):
太空探索技术公司
制造商所在国:
美国
使用方式:
暂无
卫星简介
Starlink 计划是 SpaceX 推出的全球卫星互联网项目,通过发射低轨道卫星,为全球尤其是偏远地区提供高速、低延迟的互联网服务。自 2019 年起,Starlink 已部署数千颗卫星,旨在缩小全球数字鸿沟,推动互联网普及。该项目还为军事、航空等行业提供通信支持,带来广泛经济效益。
2D轨道图
3D轨道图
轨道高度分析图
轨道倾角分析图
轨道综合分析图
查看轨道综合分析图
交会数据列表
事件ID 空间交会对象 最接近时刻(TCA) 交会距离 交会风险概率(CRP) 交会风险指数(CRI) 操作
CDM_260830-041906-094106-532521
2026-08-30T
04:19:03+0000
1.234 km
极远距离
8.234578E-6 低风险 0.53
CDM_260829-194306-094106-532521
2026-08-29T
19:43:12+0000
1.366 km
极远距离
5.830822E-6 低风险 0.5
CDM_260830-182004-309906-532522
2026-08-30T
18:20:07+0000
2.084 km
极远距离
2.526231E-6 低风险 0.43
CDM_260829-211706-094106-532521
2026-08-29T
21:17:00+0000
2.316 km
极远距离
1.370935E-6 低风险 0.38
CDM_260905-124606-532506-983321
2026-09-05T
12:46:58+0000
2.126 km
极远距离
1.265641E-6 低风险 0.37
CDM_260830-222006-532506-983321
2026-08-30T
22:20:34+0000
2.167 km
极远距离
1.215554E-6 低风险 0.37
CDM_260903-032505-187806-532521
2026-09-03T
03:25:08+0000
2.985 km
极远距离
1.207915E-6 低风险 0.37
CDM_260905-042706-532506-935421
2026-09-05T
04:27:31+0000
2.923 km
极远距离
1.15303E-6 低风险 0.36
CDM_260905-111306-532506-983321
2026-09-05T
11:13:11+0000
2.277 km
极远距离
1.098953E-6 低风险 0.36
CDM_260830-173505-342606-532521
2026-08-30T
17:35:35+0000
2.993 km
极远距离
9.683387E-7 极低风险 0.35